Location: Kapla
(46.2483°N, 15.0094°E)
Time: 05:31:04
(UTC+00:00)

SPOT 3 Rocket - Pass Details

Date: 03 March 2021
Orbit: 778 x 795 km, 98.7° (Epoch: 18 April)

Event Time Altitude Azimuth Distance (km) Brightness Sun altitude
Exits shadow 18:38:03 31° 65° (ENE) 1,380 4.4 -19.5°
Maximum altitude 18:38:05 31° 64° (ENE) 1,380 4.4 -19.6°
Drops below altitude 10° 18:42:36 10° 4° (N) 2,374 6.1 -20.3°
Sets 18:45:10 0° 355° (N) 3,309 7.0 -20.7°
